Regional Weather Roundup
Issued by NWS

Home | Current Version | Previous Version | Text Only | Print | Product List | Glossary Off
Versions: 1 2 3 4 5 6 7 8 9 10 11 12 13 14 15 16 17 18 19 20 21 22 23 24 25 26 27 28 29 30 31 32 33 34 35 36 37 38 39 40 41 42 43 44 45 46 47 48 49 50

303
ASUS43 KIND 192309
RWRIN

WEATHER ROUNDUP FOR INDIANA
NATIONAL WEATHER SERVICE INDIANAPOLIS IN
600 PM EST SUN FEB 19 2017

NOTE: "FAIR" INDICATES FEW OR NO CLOUDS BELOW 12,000 FEET WITH NO
SIGNIFICANT WEATHER AND/OR OBSTRUCTIONS TO VISIBILITY.

* - STATION DOES NOT REPORT WEATHER SUCH AS PRECIPITATION OR FOG.

+ - STATION NOT QUALITY CONTROLLED BY THE NATIONAL WEATHER SERVICE.
    USE DATA WITH CAUTION...ESPECIALLY DEWPOINT AND RELATIVE
    HUMIDITY OBSERVATIONS.

INZ001>003-010>013-019-020-200000-
NORTHWEST INDIANA

CITY           SKY/WX    TMP DP  RH WIND       PRES   REMARKS
GARY /AIRPORT/ PTCLDY    54  30  40 E3        30.07S
KNOX *+        CLEAR     61   1   9 CALM      30.08R
LA PORTE +     CLEAR     57  36  44 SW6       30.09R
MICHIGAN CITY+ CLEAR     55  30  38 CALM      30.08S
MONTICELLO +   CLEAR     62  43  49 CALM      30.07S
RENSSELAER +   CLEAR     61  43  51 CALM      30.08S
VALPARAISO     CLEAR     62  36  37 CALM      30.08R

$$

LMZ046-743>745-200000-
SOUTHERN LAKE MICHIGAN

STATION/POSITION TIME  TEMP    WIND        PRES    WAVE
                       AIR SEA DIR/SP/G            HT
                 (UTC) (F)     (DEG/KT/KT) (MB)    (FT)
BURNS HARBOR     2240   41      80/  9/ 11 1019.0R
MICHIGAN CITY    2240   40      40/ 10/ 11   N/A

$$

INZ004-005-014>016-021>024-200000-
NORTH CENTRAL INDIANA

CITY           SKY/WX    TMP DP  RH WIND       PRES   REMARKS
ELKHART        CLEAR     61  25  25 NW6       30.08R
GOSHEN         CLEAR     59  32  36 W7        30.07R
LOGANSPORT +   CLEAR     59  45  58 SW5       30.10R
PERU/GRISSOM   CLEAR     61  44  54 CALM      30.08R
ROCHESTER +    CLEAR     61  34  36 SW3       30.09S
SOUTH BEND     CLEAR     56  26  31 N7        30.09R
WARSAW +       CLEAR     59  32  36 W5        30.09R

$$

INZ006>009-017-018-025>027-200000-
NORTHEAST INDIANA

CITY           SKY/WX    TMP DP  RH WIND       PRES   REMARKS
ANGOLA *+      CLEAR     61  45  55 NW3       30.07R
AUBURN +       CLEAR     59  34  38 W5        30.08R
FORT WAYNE     PTCLDY    58  36  43 W8        30.09R
HUNTINGTON +   CLEAR     60  34  37 W3        30.09R
KENDALLVILLE + CLEAR     58  36  44 W6        30.08R

$$

INZ028-029-035-036-043>045-051>053-200000-
WEST CENTRAL INDIANA

CITY           SKY/WX    TMP DP  RH WIND       PRES   REMARKS
GREENCASTLE +  CLEAR     59  45  58 SW3       30.10R
LAFAYETTE      CLEAR     62  43  49 CALM      30.08R
TERRE HAUTE    CLEAR     61  48  62 S9        30.10R

$$

INZ030>032-037>040-046>048-054>057-064-065-200000-
CENTRAL INDIANA

CITY           SKY/WX    TMP DP  RH WIND       PRES   REMARKS
CP ATTERBURY + CLEAR     59  46  63 SE5       30.11S
COLUMBUS       CLEAR     57  50  77 SE6       30.11S
FRANKFORT +    CLEAR     65  46  50 CALM      30.11R
GREENWOOD *+   CLEAR     61  48  61 S7        30.10S
INDIANAPOLIS   PTCLDY    61  43  51 W6        30.09S
-EAGLE CREEK   CLEAR     63  43  48 S5        30.08S
KOKOMO +       CLEAR     61  45  55 NW3       30.10R
MARION +       CLEAR     60  44  54 W5        30.10R
MT COMFORT *+  CLEAR     59  46  63 S6        30.10S
SHELBYVILLE    CLEAR     58  45  62 S5        30.10S
ZIONSVILLE +   CLEAR     61  43  51 W3        30.09S

$$

INZ033-034-041-042-049-050-058-059-200000-
EAST CENTRAL INDIANA

CITY           SKY/WX    TMP DP  RH WIND       PRES   REMARKS
MUNCIE         CLEAR     62  43  49 W3        30.09R

$$

INZ060-061-067>069-081>083-085>088-200000-
SOUTHWEST INDIANA

CITY           SKY/WX    TMP DP  RH WIND       PRES   REMARKS
EVANSVILLE     CLEAR     56  49  77 SE7       30.12S
HUNTINGBURG *+ MOCLDY    52  49  89 S6        30.13R FOG
WASHINGTON +   CLEAR     60  47  64 SE5       30.11R

$$

INZ062-063-066-070>080-084-089>092-200000-
SOUTH CENTRAL AND SOUTHEAST INDIANA

CITY           SKY/WX    TMP DP  RH WIND       PRES   REMARKS
BLOOMINGTON    CLEAR     61  46  57 S3        30.10R
MADISON *+     CLEAR     55  46  71 SE6       30.15R
NORTH VERNON + CLEAR     61  48  63 CALM      30.12R
SEYMOUR +      CLEAR     63  48  59 CALM      30.11R

$$





USA.gov is the U.S. government's official web portal to all federal, state and local government web resources and services.